Home   Weather   Stockton   Past weeks
Flag for USA

Past Weather in Stockton, California, USA — Yesterday and Last 2 Weeks

Now
54 °F

Overcast.


Feels Like: 52 °F
Forecast: 79 / 49 °F
Wind: 8 mph from Northwest

Location: Stockton Metropolitan Airport

Current Time: Apr 21, 2019 at 7:21:57 am

Latest Report: Apr 21, 2019 at 5:55 am


Visibility: 10 mi

Pressure: 30.06 "Hg

Humidity: 83%

Dew Point: 49 °F

Location of StocktonLocation

Past Weather in Stockton — Graph

°F

Stockton Temperature Yesterday

Maximum temperature yesterday: 69 °F (at 1:55 pm)
Minimum temperature yesterday: 49 °F (at 9:55 pm)
Average temperature yesterday: 60 °F

High & Low Weather Summary for the Past Weeks

 TemperatureHumidityPressure
High85 °F (Apr 18, 4:55 pm)93% (Apr 6, 5:55 am)30.29 "Hg (Apr 6, 5:55 am)
Low45 °F (Apr 13, 5:55 am)19% (Apr 9, 4:55 pm)29.79 "Hg (Apr 19, 6:55 pm)
Average62 °F64%30.04 "Hg
* Reported Apr 6 5:55 am — Apr 21 5:55 am, Stockton. Weather by CustomWeather, © 2019

Note: Actual official high and low records may vary slightly from our data, if they occured in-between our weather recording intervals... More about our weather records

Advertising

Stockton Weather History for the Previous 24 Hours

Scroll right to see more
 ConditionsComfort  
Time TempWeatherWind HumidityBarometerVisibility
5:55 am
Sun, Apr 21
54 °FOvercast.8 mph83%30.06 "Hg10 mi
5:22 am54 °FOvercast.6 mph80%30.05 "Hg10 mi
4:55 am53 °FOvercast.5 mph80%30.04 "Hg10 mi
3:55 am53 °FOvercast.9 mph77%30.03 "Hg10 mi
2:55 am52 °FOvercast.7 mph80%30.01 "Hg10 mi
2:39 am52 °FPassing clouds.8 mph80%30.01 "Hg9 mi
1:55 am51 °FClear.10 mph83%30.01 "Hg9 mi
12:55 am53 °FPassing clouds.15 mph77%30.01 "Hg10 mi
11:55 pm
Sat, Apr 20
53 °FClear.10 mph77%29.99 "Hg10 mi
10:55 pm52 °FClear.7 mph80%29.97 "Hg10 mi
9:55 pm49 °FClear.No wind84%29.97 "Hg10 mi
8:55 pm54 °FClear.No wind72%29.96 "Hg10 mi
7:55 pm55 °FClear.15 mph69%29.92 "Hg10 mi
6:55 pm59 °FSunny.24 mph60%29.93 "Hg6 mi
5:55 pm62 °FSunny.30 mph52%29.92 "Hg10 mi
4:55 pm66 °FSunny.28 mph47%29.91 "Hg10 mi
3:55 pm68 °FSunny.26 mph42%29.91 "Hg10 mi
2:55 pm69 °FSunny.31 mph42%29.92 "Hg10 mi
1:55 pm69 °FSunny.28 mph47%29.93 "Hg10 mi
12:55 pm68 °FSunny.24 mph55%29.92 "Hg10 mi
11:55 am67 °FSunny.25 mph59%29.93 "Hg10 mi
10:55 am67 °FSunny.20 mph59%29.92 "Hg10 mi
9:55 am62 °FPassing clouds.18 mph67%29.90 "Hg10 mi
8:55 am59 °FScattered clouds.14 mph75%29.87 "Hg10 mi
7:55 am58 °FSunny.22 mph75%29.85 "Hg10 mi
Weather by CustomWeather, © 2019

See weather overview